Time,TemperatureF,DewpointF,PressureIn,WindDirection,WindDirectionDegrees,WindSpeedMPH,WindSpeedGustMPH,Humidity,HourlyPrecipIn,Conditions,Clouds,dailyrainin,SoftwareType,DateUTC
2013-03-18 00:02:00,33.0,28.0,-100.00,East,100,12.0,19.0,83,0.00,,,-99.99,,2013-03-18 05:02:00,
2013-03-18 00:12:00,33.0,28.0,-100.00,ESE,105,12.0,20.0,83,0.00,,,-99.99,,2013-03-18 05:12:00,
2013-03-18 00:22:00,33.0,28.0,-100.00,ESE,105,13.0,17.0,83,0.00,,,-99.99,,2013-03-18 05:22:00,
2013-03-18 00:32:00,33.0,28.0,-100.00,East,100,9.0,16.0,83,0.00,,,-99.99,,2013-03-18 05:32:00,
2013-03-18 00:43:00,33.0,28.0,-100.00,East,100,9.0,16.0,83,0.00,,,-99.99,,2013-03-18 05:43:00,
2013-03-18 00:52:00,33.0,28.0,-100.00,ESE,110,11.0,16.0,84,0.00,,,-99.99,,2013-03-18 05:52:00,
2013-03-18 01:02:00,33.0,28.0,-100.00,ESE,110,11.0,16.0,84,0.00,,,-99.99,,2013-03-18 06:02:00,
2013-03-18 01:12:00,32.0,28.0,-100.00,ESE,105,10.0,16.0,85,0.00,,,-99.99,,2013-03-18 06:12:00,
2013-03-18 01:22:00,32.0,29.0,-100.00,ESE,110,12.0,15.0,86,0.00,,,-99.99,,2013-03-18 06:22:00,
2013-03-18 01:32:00,32.0,29.0,-100.00,ESE,110,10.0,12.0,89,0.04,,,-99.99,,2013-03-18 06:32:00,
2013-03-18 01:42:00,32.0,29.0,-100.00,ESE,110,10.0,12.0,89,0.04,,,-99.99,,2013-03-18 06:42:00,
2013-03-18 01:52:00,32.0,30.0,-100.00,ESE,105,7.0,12.0,91,0.06,,,-99.99,,2013-03-18 06:52:00,
2013-03-18 02:02:00,32.0,30.0,-100.00,ESE,105,7.0,12.0,91,0.06,,,-99.99,,2013-03-18 07:02:00,
2013-03-18 02:12:00,32.0,30.0,-100.00,ESE,105,7.0,12.0,92,0.06,,,-99.99,,2013-03-18 07:12:00,
2013-03-18 02:22:00,32.0,30.0,-100.00,ESE,110,9.0,11.0,92,0.06,,,-99.99,,2013-03-18 07:22:00,
2013-03-18 02:32:00,31.0,30.0,-100.00,ESE,120,7.0,9.0,93,0.06,,,-99.99,,2013-03-18 07:32:00,
2013-03-18 02:42:00,31.0,30.0,-100.00,ESE,120,7.0,9.0,93,0.06,,,-99.99,,2013-03-18 07:42:00,
2013-03-18 02:52:00,31.0,30.0,-100.00,SE,130,6.0,8.0,93,0.04,,,-99.99,,2013-03-18 07:52:00,
2013-03-18 03:02:00,31.0,30.0,-100.00,SE,130,6.0,8.0,93,0.04,,,-99.99,,2013-03-18 08:02:00,
2013-03-18 03:12:00,31.0,30.0,-100.00,ESE,115,7.0,9.0,94,0.06,,,-99.99,,2013-03-18 08:12:00,
2013-03-18 03:22:00,31.0,30.0,-100.00,SE,125,6.0,9.0,94,0.04,,,-99.99,,2013-03-18 08:22:00,
2013-03-18 03:32:00,31.0,30.0,-100.00,ESE,110,9.0,14.0,95,0.00,,,-99.99,,2013-03-18 08:32:00,
2013-03-18 03:43:00,31.0,30.0,-100.00,ESE,110,9.0,14.0,95,0.00,,,-99.99,,2013-03-18 08:43:00,
2013-03-18 03:52:00,31.0,30.0,-100.00,ESE,120,6.0,9.0,95,0.00,,,-99.99,,2013-03-18 08:52:00,
2013-03-18 04:02:00,31.0,30.0,-100.00,ESE,120,6.0,9.0,95,0.00,,,-99.99,,2013-03-18 09:02:00,
2013-03-18 04:12:00,31.0,30.0,-100.00,SE,125,6.0,11.0,95,0.00,,,-99.99,,2013-03-18 09:12:00,
2013-03-18 04:22:00,31.0,30.0,-100.00,SE,130,6.0,7.0,95,0.00,,,-99.99,,2013-03-18 09:22:00,
2013-03-18 04:33:00,31.0,30.0,-100.00,SE,145,3.0,4.0,96,0.00,,,-99.99,,2013-03-18 09:33:00,
2013-03-18 04:42:00,31.0,30.0,-100.00,SE,145,3.0,4.0,96,0.00,,,-99.99,,2013-03-18 09:42:00,
2013-03-18 04:53:00,31.0,30.0,-100.00,SE,135,6.0,7.0,96,0.00,,,-99.99,,2013-03-18 09:53:00,
2013-03-18 05:03:00,31.0,30.0,-100.00,SE,135,6.0,7.0,96,0.00,,,-99.99,,2013-03-18 10:03:00,
2013-03-18 05:12:00,31.0,30.0,-100.00,SE,145,6.0,9.0,96,0.00,,,-99.99,,2013-03-18 10:12:00,
2013-03-18 05:23:00,31.0,30.0,-100.00,SE,135,7.0,9.0,96,0.00,,,-99.99,,2013-03-18 10:23:00,
2013-03-18 05:33:00,31.0,31.0,-100.00,SSE,155,6.0,9.0,96,0.06,,,-99.99,,2013-03-18 10:33:00,
2013-03-18 05:42:00,31.0,31.0,-100.00,SSE,155,6.0,9.0,96,0.06,,,-99.99,,2013-03-18 10:42:00,
2013-03-18 05:52:00,31.0,30.0,-100.00,South,180,4.0,6.0,96,0.04,,,-99.99,,2013-03-18 10:52:00,
2013-03-18 06:03:00,31.0,30.0,-100.00,South,180,4.0,6.0,96,0.04,,,-99.99,,2013-03-18 11:03:00,
2013-03-18 06:12:00,31.0,30.0,-100.00,South,180,3.0,6.0,96,0.28,,,-99.99,,2013-03-18 11:12:00,
2013-03-18 06:22:00,31.0,30.0,-100.00,SE,145,3.0,5.0,96,0.24,,,-99.99,,2013-03-18 11:22:00,
2013-03-18 06:32:00,31.0,30.0,-100.00,SSE,155,4.0,5.0,96,0.21,,,-99.99,,2013-03-18 11:32:00,
2013-03-18 06:42:00,31.0,30.0,-100.00,SSE,155,4.0,5.0,96,0.21,,,-99.99,,2013-03-18 11:42:00,
2013-03-18 06:52:00,31.0,30.0,-100.00,SSE,165,4.0,4.0,96,0.27,,,-99.99,,2013-03-18 11:52:00,
2013-03-18 07:02:00,31.0,30.0,-100.00,SSE,165,4.0,4.0,96,0.27,,,-99.99,,2013-03-18 12:02:00,
2013-03-18 07:12:00,31.0,30.0,-100.00,SSE,165,4.0,6.0,96,0.01,,,-99.99,,2013-03-18 12:12:00,
2013-03-18 07:22:00,31.0,30.0,-100.00,South,170,4.0,6.0,96,0.03,,,-99.99,,2013-03-18 12:22:00,
2013-03-18 07:32:00,31.0,30.0,-100.00,South,175,4.0,6.0,96,0.08,,,-99.99,,2013-03-18 12:32:00,
2013-03-18 07:42:00,31.0,30.0,-100.00,South,175,4.0,6.0,96,0.08,,,-99.99,,2013-03-18 12:42:00,
2013-03-18 07:52:00,31.0,30.0,-100.00,South,180,4.0,6.0,96,0.03,,,-99.99,,2013-03-18 12:52:00,
2013-03-18 08:02:00,31.0,30.0,-100.00,South,180,4.0,6.0,96,0.03,,,-99.99,,2013-03-18 13:02:00,
2013-03-18 08:12:00,31.0,31.0,-100.00,South,185,4.0,7.0,96,0.00,,,-99.99,,2013-03-18 13:12:00,
2013-03-18 08:22:00,31.0,31.0,-100.00,South,190,5.0,6.0,96,0.00,,,-99.99,,2013-03-18 13:22:00,
2013-03-18 08:33:00,32.0,31.0,-100.00,South,190,7.0,10.0,96,0.03,,,-99.99,,2013-03-18 13:33:00,
2013-03-18 08:42:00,32.0,31.0,-100.00,South,190,7.0,10.0,96,0.03,,,-99.99,,2013-03-18 13:42:00,
2013-03-18 08:52:00,32.0,31.0,-100.00,South,190,8.0,11.0,96,0.00,,,-99.99,,2013-03-18 13:52:00,
2013-03-18 09:02:00,32.0,31.0,-100.00,SSW,200,7.0,13.0,96,0.00,,,-99.99,,2013-03-18 14:02:00,
2013-03-18 09:12:00,32.0,31.0,-100.00,SW,220,11.0,12.0,96,0.00,,,-99.99,,2013-03-18 14:12:00,
2013-03-18 09:22:00,33.0,32.0,-100.00,SW,230,11.0,15.0,96,0.00,,,-99.99,,2013-03-18 14:22:00,
2013-03-18 09:32:00,33.0,32.0,-100.00,WSW,245,9.0,14.0,96,0.00,,,-99.99,,2013-03-18 14:32:00,
2013-03-18 09:42:00,33.0,32.0,-100.00,WSW,245,9.0,14.0,96,0.00,,,-99.99,,2013-03-18 14:42:00,
2013-03-18 09:52:00,34.0,33.0,-100.00,West,265,11.0,16.0,96,0.00,,,-99.99,,2013-03-18 14:52:00,
2013-03-18 10:02:00,34.0,33.0,-100.00,West,265,11.0,16.0,96,0.00,,,-99.99,,2013-03-18 15:02:00,
2013-03-18 10:12:00,33.0,32.0,-100.00,West,270,16.0,28.0,96,0.00,,,-99.99,,2013-03-18 15:12:00,
2013-03-18 10:22:00,33.0,32.0,-100.00,WNW,290,14.0,23.0,95,0.00,,,-99.99,,2013-03-18 15:22:00,
2013-03-18 10:33:00,33.0,30.0,-100.00,WNW,285,21.0,25.0,90,0.00,,,-99.99,,2013-03-18 15:33:00,
2013-03-18 10:42:00,33.0,30.0,-100.00,WNW,285,21.0,25.0,90,0.00,,,-99.99,,2013-03-18 15:42:00,
2013-03-18 10:52:00,33.0,28.0,-100.00,West,280,21.0,27.0,82,0.00,,,-99.99,,2013-03-18 15:52:00,
2013-03-18 11:03:00,33.0,28.0,-100.00,West,280,21.0,27.0,82,0.00,,,-99.99,,2013-03-18 16:03:00,
2013-03-18 11:12:00,32.0,27.0,-100.00,WNW,290,20.0,27.0,80,0.00,,,-99.99,,2013-03-18 16:12:00,
2013-03-18 11:22:00,33.0,27.0,-100.00,WNW,290,15.0,27.0,78,0.00,,,-99.99,,2013-03-18 16:22:00,
2013-03-18 11:32:00,32.0,26.0,-100.00,WNW,290,20.0,29.0,75,0.00,,,-99.99,,2013-03-18 16:32:00,
2013-03-18 11:42:00,32.0,26.0,-100.00,WNW,290,20.0,29.0,75,0.00,,,-99.99,,2013-03-18 16:42:00,
2013-03-18 11:52:00,32.0,25.0,-100.00,WNW,290,17.0,27.0,75,0.00,,,-99.99,,2013-03-18 16:52:00,
2013-03-18 12:02:00,32.0,25.0,-100.00,WNW,290,17.0,27.0,75,0.00,,,-99.99,,2013-03-18 17:02:00,
2013-03-18 12:12:00,31.0,23.0,-100.00,WNW,295,21.0,27.0,73,0.00,,,-99.99,,2013-03-18 17:12:00,
2013-03-18 12:22:00,31.0,23.0,-100.00,WNW,295,22.0,27.0,71,0.00,,,-99.99,,2013-03-18 17:22:00,
2013-03-18 12:32:00,31.0,22.0,-100.00,WNW,300,20.0,27.0,68,0.00,,,-99.99,,2013-03-18 17:32:00,
2013-03-18 12:42:00,31.0,22.0,-100.00,WNW,300,20.0,27.0,68,0.00,,,-99.99,,2013-03-18 17:42:00,
2013-03-18 12:52:00,30.0,20.0,-100.00,WNW,290,27.0,37.0,66,0.00,,,-99.99,,2013-03-18 17:52:00,
2013-03-18 13:02:00,30.0,20.0,-100.00,WNW,290,27.0,37.0,66,0.00,,,-99.99,,2013-03-18 18:02:00,
2013-03-18 13:12:00,30.0,20.0,-100.00,WNW,290,27.0,37.0,66,0.00,,,-99.99,,2013-03-18 18:12:00,
2013-03-18 13:22:00,30.0,20.0,-100.00,WNW,290,27.0,37.0,66,0.00,,,-99.99,,2013-03-18 18:22:00,
2013-03-18 13:32:00,29.0,19.0,-100.00,WNW,295,21.0,30.0,66,0.04,,,-99.99,,2013-03-18 18:32:00,
2013-03-18 13:42:00,29.0,19.0,-100.00,WNW,295,21.0,30.0,66,0.04,,,-99.99,,2013-03-18 18:42:00,
2013-03-18 13:52:00,28.0,18.0,-100.00,WNW,290,20.0,29.0,67,0.00,,,-99.99,,2013-03-18 18:52:00,
2013-03-18 14:02:00,28.0,18.0,-100.00,WNW,290,20.0,29.0,67,0.00,,,-99.99,,2013-03-18 19:02:00,
2013-03-18 14:12:00,28.0,18.0,-100.00,West,280,22.0,34.0,65,0.00,,,-99.99,,2013-03-18 19:12:00,
2013-03-18 14:22:00,27.0,17.0,-100.00,NW,310,22.0,29.0,65,0.00,,,-99.99,,2013-03-18 19:22:00,
2013-03-18 14:32:00,28.0,18.0,-100.00,WNW,290,22.0,34.0,63,0.00,,,-99.99,,2013-03-18 19:32:00,
2013-03-18 14:42:00,28.0,18.0,-100.00,WNW,290,22.0,34.0,63,0.00,,,-99.99,,2013-03-18 19:42:00,
2013-03-18 14:52:00,27.0,15.0,-100.00,WNW,285,30.0,37.0,61,0.00,,,-99.99,,2013-03-18 19:52:00,
2013-03-18 15:02:00,27.0,15.0,-100.00,WNW,285,30.0,37.0,61,0.00,,,-99.99,,2013-03-18 20:02:00,
2013-03-18 15:12:00,27.0,16.0,-100.00,West,280,29.0,37.0,62,0.00,,,-99.99,,2013-03-18 20:12:00,
2013-03-18 15:22:00,27.0,16.0,-100.00,WNW,295,22.0,37.0,62,0.00,,,-99.99,,2013-03-18 20:22:00,
2013-03-18 15:32:00,26.0,16.0,-100.00,WNW,285,24.0,34.0,64,0.03,,,-99.99,,2013-03-18 20:32:00,
2013-03-18 15:42:00,26.0,16.0,-100.00,WNW,285,24.0,34.0,64,0.03,,,-99.99,,2013-03-18 20:42:00,
2013-03-18 15:52:00,26.0,15.0,-100.00,WNW,290,24.0,35.0,60,0.00,,,-99.99,,2013-03-18 20:52:00,
2013-03-18 16:02:00,26.0,15.0,-100.00,WNW,290,24.0,35.0,60,0.00,,,-99.99,,2013-03-18 21:02:00,
2013-03-18 16:12:00,27.0,15.0,-100.00,WNW,290,22.0,32.0,60,0.00,,,-99.99,,2013-03-18 21:12:00,
2013-03-18 16:22:00,26.0,15.0,-100.00,WNW,290,22.0,32.0,60,0.00,,,-99.99,,2013-03-18 21:22:00,
2013-03-18 16:32:00,27.0,16.0,-100.00,WNW,290,19.0,30.0,63,0.00,,,-99.99,,2013-03-18 21:32:00,
2013-03-18 16:42:00,27.0,16.0,-100.00,WNW,290,19.0,30.0,63,0.00,,,-99.99,,2013-03-18 21:42:00,
2013-03-18 16:52:00,25.0,14.0,-100.00,WNW,285,29.0,34.0,62,0.00,,,-99.99,,2013-03-18 21:52:00,
2013-03-18 17:03:00,25.0,14.0,-100.00,WNW,285,29.0,34.0,62,0.00,,,-99.99,,2013-03-18 22:03:00,
2013-03-18 17:13:00,26.0,14.0,-100.00,WNW,290,32.0,41.0,60,0.00,,,-99.99,,2013-03-18 22:13:00,
2013-03-18 17:23:00,25.0,14.0,-100.00,WNW,295,24.0,39.0,60,0.00,,,-99.99,,2013-03-18 22:23:00,
2013-03-18 17:33:00,26.0,13.0,-100.00,WNW,290,28.0,40.0,59,0.00,,,-99.99,,2013-03-18 22:33:00,
2013-03-18 17:42:00,26.0,13.0,-100.00,WNW,290,28.0,40.0,59,0.00,,,-99.99,,2013-03-18 22:42:00,
2013-03-18 17:52:00,25.0,14.0,-100.00,WNW,290,22.0,34.0,60,0.00,,,-99.99,,2013-03-18 22:52:00,
2013-03-18 18:03:00,25.0,14.0,-100.00,WNW,290,22.0,34.0,60,0.00,,,-99.99,,2013-03-18 23:03:00,
2013-03-18 18:12:00,26.0,14.0,-100.00,WNW,285,26.0,34.0,59,0.00,,,-99.99,,2013-03-18 23:12:00,
2013-03-18 18:22:00,26.0,13.0,-100.00,WNW,290,26.0,40.0,58,0.00,,,-99.99,,2013-03-18 23:22:00,
2013-03-18 18:32:00,26.0,13.0,-100.00,WNW,290,27.0,34.0,58,0.00,,,-99.99,,2013-03-18 23:32:00,
2013-03-18 18:42:00,26.0,13.0,-100.00,WNW,290,27.0,34.0,58,0.00,,,-99.99,,2013-03-18 23:42:00,
2013-03-18 18:52:00,26.0,13.0,-100.00,WNW,285,27.0,35.0,57,0.00,,,-99.99,,2013-03-18 23:52:00,
2013-03-18 19:02:00,26.0,13.0,-100.00,WNW,285,27.0,35.0,57,0.00,,,-99.99,,2013-03-19 00:02:00,
2013-03-18 19:12:00,26.0,13.0,-100.00,WNW,290,20.0,32.0,57,0.00,,,-99.99,,2013-03-19 00:12:00,
2013-03-18 19:22:00,26.0,13.0,-100.00,WNW,295,25.0,35.0,58,0.00,,,-99.99,,2013-03-19 00:22:00,
2013-03-18 19:32:00,26.0,13.0,-100.00,WNW,290,15.0,27.0,59,0.00,,,-99.99,,2013-03-19 00:32:00,
2013-03-18 19:42:00,26.0,13.0,-100.00,WNW,290,15.0,27.0,59,0.00,,,-99.99,,2013-03-19 00:42:00,
2013-03-18 19:52:00,25.0,14.0,-100.00,WNW,285,21.0,27.0,60,0.00,,,-99.99,,2013-03-19 00:52:00,
2013-03-18 20:02:00,25.0,14.0,-100.00,WNW,285,21.0,27.0,60,0.00,,,-99.99,,2013-03-19 01:02:00,
2013-03-18 20:12:00,25.0,14.0,-100.00,WNW,290,21.0,28.0,60,0.00,,,-99.99,,2013-03-19 01:12:00,
2013-03-18 20:22:00,25.0,14.0,-100.00,WNW,285,20.0,28.0,60,0.00,,,-99.99,,2013-03-19 01:22:00,
2013-03-18 20:32:00,25.0,14.0,-100.00,WNW,285,16.0,24.0,61,0.00,,,-99.99,,2013-03-19 01:32:00,
2013-03-18 20:42:00,25.0,14.0,-100.00,WNW,285,16.0,24.0,61,0.00,,,-99.99,,2013-03-19 01:42:00,
2013-03-18 20:52:00,25.0,14.0,-100.00,WNW,285,14.0,19.0,62,0.00,,,-99.99,,2013-03-19 01:52:00,
2013-03-18 21:02:00,25.0,14.0,-100.00,WNW,285,14.0,19.0,62,0.00,,,-99.99,,2013-03-19 02:02:00,
2013-03-18 21:12:00,25.0,14.0,-100.00,WNW,300,12.0,21.0,63,0.00,,,-99.99,,2013-03-19 02:12:00,
2013-03-18 21:22:00,25.0,14.0,-100.00,WNW,295,17.0,21.0,63,0.00,,,-99.99,,2013-03-19 02:22:00,
2013-03-18 21:32:00,25.0,14.0,-100.00,WNW,290,16.0,24.0,63,0.00,,,-99.99,,2013-03-19 02:32:00,
2013-03-18 21:42:00,25.0,14.0,-100.00,WNW,290,16.0,24.0,63,0.00,,,-99.99,,2013-03-19 02:42:00,
2013-03-18 21:52:00,24.0,14.0,-100.00,WNW,300,15.0,22.0,64,0.00,,,-99.99,,2013-03-19 02:52:00,
2013-03-18 22:02:00,24.0,14.0,-100.00,WNW,300,15.0,22.0,64,0.00,,,-99.99,,2013-03-19 03:02:00,
2013-03-18 22:12:00,24.0,14.0,-100.00,WNW,300,19.0,24.0,64,0.00,,,-99.99,,2013-03-19 03:12:00,
2013-03-18 22:22:00,24.0,13.0,-100.00,WNW,300,18.0,26.0,63,0.00,,,-99.99,,2013-03-19 03:22:00,
2013-03-18 22:33:00,23.0,13.0,-100.00,WNW,300,16.0,26.0,63,0.00,,,-99.99,,2013-03-19 03:33:00,
2013-03-18 22:43:00,23.0,13.0,-100.00,WNW,300,16.0,26.0,63,0.00,,,-99.99,,2013-03-19 03:43:00,
2013-03-18 22:53:00,23.0,12.0,-100.00,NW,305,14.0,21.0,63,0.00,,,-99.99,,2013-03-19 03:53:00,
2013-03-18 23:03:00,23.0,12.0,-100.00,NW,305,14.0,21.0,63,0.00,,,-99.99,,2013-03-19 04:03:00,
2013-03-18 23:13:00,23.0,12.0,-100.00,NW,305,17.0,25.0,63,0.00,,,-99.99,,2013-03-19 04:13:00,
2013-03-18 23:23:00,23.0,12.0,-100.00,NW,305,14.0,24.0,63,0.00,,,-99.99,,2013-03-19 04:23:00,
2013-03-18 23:33:00,22.0,12.0,-100.00,NW,305,9.0,17.0,63,0.00,,,-99.99,,2013-03-19 04:33:00,
2013-03-18 23:43:00,22.0,12.0,-100.00,NW,310,18.0,27.0,63,0.00,,,-99.99,,2013-03-19 04:43:00,
2013-03-18 23:52:00,22.0,11.0,-100.00,NW,310,15.0,24.0,63,0.00,,,-99.99,,2013-03-19 04:52:00,